| time (UTC) | temp F | wind direction | speed MPH | gust MPH | rain 1hr in | rain 24hr in | rain mn in | humidity % | barometer mb |
| 20260509162257 | 70 | 60 | 0.0 | 0.0 | 0.00 | 0.00 | 0.00 | 20 | 1026.5 |
| 20260509161757 | 71 | 141 | 0.0 | 0.0 | 0.00 | 0.00 | 0.00 | 19 | 1026.7 |
| 20260509161254 | 70 | 341 | 0.0 | 0.0 | 0.00 | 0.00 | 0.00 | 21 | 1026.7 |
| 20260509160757 | 69 | 172 | 0.0 | 2.0 | 0.00 | 0.00 | 0.00 | 21 | 1026.6 |
| 20260509160257 | 69 | 44 | 0.0 | 1.0 | 0.00 | 0.00 | 0.00 | 21 | 1026.4 |
| 20260509155757 | 68 | 58 | 0.0 | 0.0 | 0.00 | 0.00 | 0.00 | 21 | 1026.6 |
| 20260509155254 | 70 | 74 | 0.0 | 2.0 | 0.00 | 0.00 | 0.00 | 20 | 1026.5 |
| 20260509154757 | 70 | 91 | 0.0 | 1.0 | 0.00 | 0.00 | 0.00 | 20 | 1026.5 |
| 20260509154254 | 70 | 143 | 0.0 | 1.0 | 0.00 | 0.00 | 0.00 | 20 | 1026.5 |
| 20260509153754 | 69 | 104 | 0.0 | 0.0 | 0.00 | 0.00 | 0.00 | 21 | 1026.4 |
| 20260509153254 | 68 | 105 | 0.0 | 0.0 | 0.00 | 0.00 | 0.00 | 21 | 1026.5 |
| 20260509152757 | 68 | 158 | 0.0 | 0.0 | 0.00 | 0.00 | 0.00 | 22 | 1026.4 |
| 20260509152254 | 67 | 142 | 0.0 | 0.0 | 0.00 | 0.00 | 0.00 | 22 | 1026.5 |
| 20260509151757 | 67 | 225 | 0.0 | 0.0 | 0.00 | 0.00 | 0.00 | 23 | 1026.7 |
| 20260509151254 | 66 | 232 | 0.0 | 0.0 | 0.00 | 0.00 | 0.00 | 23 | 1026.6 |
| 20260509150754 | 66 | 145 | 0.0 | 0.0 | 0.00 | 0.00 | 0.00 | 24 | 1026.5 |
| 20260509150254 | 65 | 94 | 0.0 | 0.0 | 0.00 | 0.00 | 0.00 | 24 | 1026.7 |
| 20260509145754 | 64 | 70 | 0.0 | 0.0 | 0.00 | 0.00 | 0.00 | 25 | 1026.6 |
| 20260509145257 | 63 | 134 | 0.0 | 0.0 | 0.00 | 0.00 | 0.00 | 26 | 1026.8 |
| 20260509144754 | 63 | 105 | 0.0 | 0.0 | 0.00 | 0.00 | 0.00 | 25 | 1026.8 |
| 20260509144257 | 62 | 85 | 0.0 | 0.0 | 0.00 | 0.00 | 0.00 | 26 | 1026.8 |
| 20260509143754 | 62 | 50 | 0.0 | 0.0 | 0.00 | 0.00 | 0.00 | 27 | 1026.8 |
| 20260509143257 | 62 | 49 | 0.0 | 0.0 | 0.00 | 0.00 | 0.00 | 25 | 1026.8 |
| 20260509142757 | 62 | 89 | 0.0 | 0.0 | 0.00 | 0.00 | 0.00 | 26 | 1026.7 |
| 20260509142254 | 62 | 113 | 0.0 | 0.0 | 0.00 | 0.00 | 0.00 | 25 | 1026.7 |
| 20260509141757 | 62 | 82 | 0.0 | 0.0 | 0.00 | 0.00 | 0.00 | 26 | 1026.7 |
| 20260509141257 | 62 | 91 | 0.0 | 0.0 | 0.00 | 0.00 | 0.00 | 25 | 1026.8 |
| 20260509140757 | 63 | 56 | 0.0 | 0.0 | 0.00 | 0.00 | 0.00 | 25 | 1026.7 |
| 20260509140257 | 62 | 97 | 0.0 | 0.0 | 0.00 | 0.00 | 0.00 | 27 | 1026.8 |
| 20260509135754 | 61 | 89 | 0.0 | 0.0 | 0.00 | 0.00 | 0.00 | 27 | 1026.8 |
| 20260509135254 | 61 | 52 | 0.0 | 0.0 | 0.00 | 0.00 | 0.00 | 26 | 1026.8 |
| 20260509134754 | 61 | 75 | 0.0 | 0.0 | 0.00 | 0.00 | 0.00 | 26 | 1026.8 |
| 20260509134257 | 61 | 73 | 0.0 | 0.0 | 0.00 | 0.00 | 0.00 | 28 | 1026.8 |
| 20260509133757 | 61 | 70 | 0.0 | 0.0 | 0.00 | 0.00 | 0.00 | 26 | 1026.8 |
| 20260509133257 | 61 | 68 | 0.0 | 0.0 | 0.00 | 0.00 | 0.00 | 26 | 1026.7 |
| 20260509132757 | 61 | 68 | 0.0 | 0.0 | 0.00 | 0.00 | 0.00 | 26 | 1026.8 |
| 20260509132257 | 61 | 58 | 0.0 | 0.0 | 0.00 | 0.00 | 0.00 | 25 | 1026.8 |
| 20260509131757 | 61 | 85 | 0.0 | 0.0 | 0.00 | 0.00 | 0.00 | 28 | 1026.8 |
| 20260509131257 | 60 | 85 | 0.0 | 0.0 | 0.00 | 0.00 | 0.00 | 27 | 1026.9 |
| 20260509130757 | 59 | 85 | 0.0 | 0.0 | 0.00 | 0.00 | 0.00 | 28 | 1026.8 |
| 20260509130257 | 59 | 85 | 0.0 | 0.0 | 0.00 | 0.00 | 0.00 | 28 | 1026.7 |
| 20260509125754 | 58 | 85 | 0.0 | 0.0 | 0.00 | 0.00 | 0.00 | 28 | 1026.8 |
| 20260509125254 | 57 | 85 | 0.0 | 0.0 | 0.00 | 0.00 | 0.00 | 29 | 1026.8 |
| 20260509124757 | 57 | 84 | 0.0 | 0.0 | 0.00 | 0.00 | 0.00 | 29 | 1026.8 |
| 20260509124254 | 57 | 85 | 0.0 | 0.0 | 0.00 | 0.00 | 0.00 | 29 | 1026.9 |
| 20260509123757 | 57 | 85 | 0.0 | 0.0 | 0.00 | 0.00 | 0.00 | 29 | 1026.9 |
| 20260509123257 | 56 | 85 | 0.0 | 0.0 | 0.00 | 0.00 | 0.00 | 29 | 1026.8 |
| 20260509122754 | 56 | 85 | 0.0 | 0.0 | 0.00 | 0.00 | 0.00 | 28 | 1026.9 |
| 20260509122254 | 56 | 85 | 0.0 | 0.0 | 0.00 | 0.00 | 0.00 | 29 | 1026.8 |
| 20260509121754 | 56 | 313 | 0.0 | 0.0 | 0.00 | 0.00 | 0.00 | 29 | 1026.8 |
| 20260509121254 | 56 | 313 | 0.0 | 0.0 | 0.00 | 0.00 | 0.00 | 28 | 1026.8 |
| 20260509120754 | 57 | 313 | 0.0 | 0.0 | 0.00 | 0.00 | 0.00 | 28 | 1026.8 |
| 20260509120257 | 57 | 314 | 0.0 | 0.0 | 0.00 | 0.00 | 0.00 | 27 | 1026.8 |
| 20260509115757 | 57 | 314 | 0.0 | 0.0 | 0.00 | 0.00 | 0.00 | 27 | 1026.8 |
| 20260509115257 | 57 | 314 | 0.0 | 0.0 | 0.00 | 0.00 | 0.00 | 27 | 1026.8 |
| 20260509114754 | 57 | 314 | 0.0 | 0.0 | 0.00 | 0.00 | 0.00 | 27 | 1026.7 |
| 20260509114254 | 57 | 314 | 0.0 | 0.0 | 0.00 | 0.00 | 0.00 | 27 | 1026.8 |
| 20260509113757 | 57 | 313 | 0.0 | 0.0 | 0.00 | 0.00 | 0.00 | 27 | 1026.9 |
| 20260509113257 | 57 | 278 | 0.0 | 0.0 | 0.00 | 0.00 | 0.00 | 27 | 1027.0 |
| 20260509112754 | 57 | 285 | 0.0 | 0.0 | 0.00 | 0.00 | 0.00 | 27 | 1027.0 |
| 20260509112254 | 58 | 267 | 0.0 | 0.0 | 0.00 | 0.00 | 0.00 | 26 | 1027.1 |
| 20260509111757 | 57 | 266 | 0.0 | 0.0 | 0.00 | 0.00 | 0.00 | 27 | 1027.1 |
| 20260509111254 | 57 | 267 | 0.0 | 0.0 | 0.00 | 0.00 | 0.00 | 27 | 1027.3 |
| 20260509110754 | 57 | 267 | 0.0 | 0.0 | 0.00 | 0.00 | 0.00 | 27 | 1027.3 |
| 20260509110254 | 57 | 267 | 0.0 | 0.0 | 0.00 | 0.00 | 0.00 | 27 | 1027.4 |
| 20260509105754 | 57 | 266 | 0.0 | 0.0 | 0.00 | 0.00 | 0.00 | 27 | 1027.3 |
| 20260509105254 | 57 | 260 | 0.0 | 0.0 | 0.00 | 0.00 | 0.00 | 27 | 1027.4 |
| 20260509104757 | 57 | 248 | 0.0 | 0.0 | 0.00 | 0.00 | 0.00 | 28 | 1027.3 |
| 20260509104254 | 57 | 248 | 0.0 | 0.0 | 0.00 | 0.00 | 0.00 | 28 | 1027.5 |
| 20260509103754 | 57 | 256 | 0.0 | 0.0 | 0.00 | 0.00 | 0.00 | 27 | 1027.4 |
| 20260509103254 | 57 | 333 | 0.0 | 0.0 | 0.00 | 0.00 | 0.00 | 27 | 1027.5 |
| 20260509102754 | 58 | 70 | 0.0 | 0.0 | 0.00 | 0.00 | 0.00 | 27 | 1027.5 |
| 20260509102257 | 58 | 70 | 0.0 | 0.0 | 0.00 | 0.00 | 0.00 | 26 | 1027.5 |
| 20260509101754 | 58 | 98 | 0.0 | 0.0 | 0.00 | 0.00 | 0.00 | 26 | 1027.6 |
| 20260509101257 | 58 | 33 | 0.0 | 0.0 | 0.00 | 0.00 | 0.00 | 26 | 1027.7 |
| 20260509100757 | 58 | 45 | 0.0 | 0.0 | 0.00 | 0.00 | 0.00 | 26 | 1027.7 |
| 20260509100257 | 58 | 252 | 0.0 | 0.0 | 0.00 | 0.00 | 0.00 | 26 | 1027.8 |
| 20260509095757 | 58 | 250 | 0.0 | 0.0 | 0.00 | 0.00 | 0.00 | 27 | 1027.7 |
| 20260509095254 | 58 | 250 | 0.0 | 0.0 | 0.00 | 0.00 | 0.00 | 27 | 1027.8 |
| 20260509094757 | 58 | 250 | 0.0 | 0.0 | 0.00 | 0.00 | 0.00 | 27 | 1027.8 |
| 20260509094257 | 58 | 250 | 0.0 | 0.0 | 0.00 | 0.00 | 0.00 | 27 | 1027.8 |
| 20260509093757 | 58 | 250 | 0.0 | 0.0 | 0.00 | 0.00 | 0.00 | 27 | 1027.9 |
| 20260509093257 | 58 | 256 | 0.0 | 0.0 | 0.00 | 0.00 | 0.00 | 27 | 1028.0 |
| 20260509092757 | 58 | 238 | 0.0 | 0.0 | 0.00 | 0.00 | 0.00 | 27 | 1028.1 |
| 20260509092257 | 58 | 236 | 0.0 | 0.0 | 0.00 | 0.00 | 0.00 | 27 | 1028.1 |
| 20260509091757 | 59 | 257 | 0.0 | 1.0 | 0.00 | 0.00 | 0.00 | 26 | 1028.2 |
| 20260509091257 | 60 | 245 | 0.0 | 0.0 | 0.00 | 0.00 | 0.00 | 25 | 1028.2 |
| 20260509090754 | 60 | 228 | 0.0 | 0.0 | 0.00 | 0.00 | 0.00 | 25 | 1028.2 |
| 20260509090257 | 59 | 236 | 0.0 | 0.0 | 0.00 | 0.00 | 0.00 | 26 | 1028.3 |
| 20260509085757 | 59 | 232 | 0.0 | 0.0 | 0.00 | 0.00 | 0.00 | 25 | 1028.3 |
| 20260509085254 | 60 | 251 | 0.0 | 0.0 | 0.00 | 0.00 | 0.00 | 26 | 1028.4 |
| 20260509084757 | 60 | 243 | 0.0 | 0.0 | 0.00 | 0.00 | 0.00 | 25 | 1028.4 |
| 20260509084254 | 60 | 239 | 0.0 | 0.0 | 0.00 | 0.00 | 0.00 | 25 | 1028.5 |
| 20260509083757 | 59 | 239 | 0.0 | 0.0 | 0.00 | 0.00 | 0.00 | 26 | 1028.5 |
| 20260509083257 | 59 | 250 | 0.0 | 0.0 | 0.00 | 0.00 | 0.00 | 26 | 1028.6 |
| 20260509082754 | 60 | 250 | 0.0 | 0.0 | 0.00 | 0.00 | 0.00 | 25 | 1028.7 |
| 20260509082254 | 60 | 256 | 0.0 | 0.0 | 0.00 | 0.00 | 0.00 | 25 | 1028.7 |
| 20260509081757 | 60 | 322 | 0.0 | 0.0 | 0.00 | 0.00 | 0.00 | 25 | 1028.7 |
| 20260509081254 | 60 | 246 | 0.0 | 0.0 | 0.00 | 0.00 | 0.00 | 25 | 1028.7 |
| 20260509080754 | 60 | 261 | 0.0 | 0.0 | 0.00 | 0.00 | 0.00 | 25 | 1028.8 |
| 20260509080257 | 61 | 261 | 0.0 | 0.0 | 0.00 | 0.00 | 0.00 | 24 | 1028.8 |
| 20260509075754 | 62 | 250 | 0.0 | 0.0 | 0.00 | 0.00 | 0.00 | 24 | 1028.9 |
| 20260509075254 | 62 | 256 | 0.0 | 0.0 | 0.00 | 0.00 | 0.00 | 23 | 1028.9 |
| 20260509074757 | 62 | 279 | 0.0 | 0.0 | 0.00 | 0.00 | 0.00 | 23 | 1028.9 |
| 20260509074254 | 63 | 222 | 0.0 | 2.0 | 0.00 | 0.00 | 0.00 | 23 | 1028.9 |
| 20260509073757 | 63 | 256 | 0.0 | 1.0 | 0.00 | 0.00 | 0.00 | 22 | 1028.9 |
| 20260509073257 | 63 | 273 | 0.0 | 1.0 | 0.00 | 0.00 | 0.00 | 22 | 1029.0 |
| 20260509072754 | 64 | 263 | 0.0 | 1.0 | 0.00 | 0.00 | 0.00 | 22 | 1029.1 |
| 20260509072257 | 64 | 218 | 0.0 | 6.0 | 0.00 | 0.00 | 0.00 | 22 | 1029.1 |
| 20260509071757 | 63 | 245 | 0.0 | 3.0 | 0.00 | 0.00 | 0.00 | 22 | 1029.2 |
| 20260509071257 | 64 | 315 | 0.0 | 5.0 | 0.00 | 0.00 | 0.00 | 22 | 1029.2 |
| 20260509070754 | 64 | 232 | 0.0 | 1.0 | 0.00 | 0.00 | 0.00 | 22 | 1029.1 |
| 20260509070257 | 64 | 343 | 0.0 | 8.0 | 0.00 | 0.00 | 0.00 | 22 | 1029.2 |
| 20260509065754 | 64 | 308 | 0.0 | 1.0 | 0.00 | 0.00 | 0.00 | 21 | 1029.3 |
| 20260509065254 | 64 | 273 | 0.0 | 1.0 | 0.00 | 0.00 | 0.00 | 21 | 1029.3 |
| 20260509064757 | 64 | 330 | 0.0 | 5.0 | 0.00 | 0.00 | 0.00 | 21 | 1029.3 |
| 20260509064254 | 64 | 259 | 0.0 | 0.0 | 0.00 | 0.00 | 0.00 | 21 | 1029.3 |
| 20260509063757 | 64 | 302 | 0.0 | 6.0 | 0.00 | 0.00 | 0.00 | 21 | 1029.3 |
| 20260509063254 | 64 | 240 | 0.0 | 3.0 | 0.00 | 0.00 | 0.00 | 21 | 1029.3 |
| 20260509062754 | 64 | 203 | 0.0 | 1.0 | 0.00 | 0.00 | 0.00 | 21 | 1029.3 |
| 20260509062257 | 64 | 258 | 0.0 | 1.0 | 0.00 | 0.00 | 0.00 | 21 | 1029.3 |
| 20260509061754 | 64 | 266 | 2.0 | 3.0 | 0.00 | 0.00 | 0.00 | 22 | 1029.2 |
| 20260509061254 | 64 | 256 | 0.0 | 3.0 | 0.00 | 0.00 | 0.00 | 21 | 1029.4 |
| 20260509060757 | 64 | 253 | 5.0 | 11.0 | 0.00 | 0.00 | 0.00 | 21 | 1029.4 |
| 20260509060257 | 64 | 232 | 4.0 | 7.0 | 0.00 | 0.00 | 0.00 | 22 | 1029.3 |
| 20260509055757 | 64 | 215 | 0.0 | 8.0 | 0.00 | 0.00 | 0.00 | 22 | 1029.3 |
| 20260509055257 | 64 | 293 | 0.0 | 4.0 | 0.00 | 0.00 | 0.00 | 22 | 1029.3 |
| 20260509054757 | 64 | 305 | 0.0 | 2.0 | 0.00 | 0.00 | 0.00 | 22 | 1029.4 |
| 20260509054257 | 64 | 273 | 0.0 | 3.0 | 0.00 | 0.00 | 0.00 | 22 | 1029.4 |
| 20260509053754 | 64 | 263 | 0.0 | 4.0 | 0.00 | 0.00 | 0.00 | 22 | 1029.5 |
| 20260509053257 | 64 | 232 | 0.0 | 4.0 | 0.00 | 0.00 | 0.00 | 22 | 1029.4 |
| 20260509052757 | 64 | 273 | 0.0 | 3.0 | 0.00 | 0.00 | 0.00 | 22 | 1029.5 |
| 20260509052254 | 64 | 251 | 0.0 | 0.0 | 0.00 | 0.00 | 0.00 | 22 | 1029.5 |
| 20260509051754 | 64 | 226 | 0.0 | 5.0 | 0.00 | 0.00 | 0.00 | 22 | 1029.6 |
| 20260509051254 | 64 | 226 | 0.0 | 3.0 | 0.00 | 0.00 | 0.00 | 22 | 1029.7 |
| 20260509050754 | 64 | 233 | 0.0 | 1.0 | 0.00 | 0.00 | 0.00 | 22 | 1029.7 |
| 20260509050254 | 64 | 343 | 0.0 | 6.0 | 0.00 | 0.00 | 0.00 | 22 | 1029.2 |
| 20260509033215 | 64 | 262 | 0.0 | 0.0 | 0.00 | 0.00 | 0.00 | 21 | 1029.5 |
| 20260509032715 | 64 | 256 | 0.0 | 1.0 | 0.00 | 0.00 | 0.00 | 21 | 1029.5 |
| 20260509032212 | 64 | 243 | 0.0 | 1.0 | 0.00 | 0.00 | 0.00 | 21 | 1029.3 |
| 20260509031715 | 64 | 266 | 0.0 | 0.0 | 0.00 | 0.00 | 0.00 | 21 | 1029.4 |
| 20260509031212 | 65 | 235 | 0.0 | 3.0 | 0.00 | 0.00 | 0.00 | 20 | 1029.3 |
| 20260509030715 | 65 | 253 | 0.0 | 6.0 | 0.00 | 0.00 | 0.00 | 20 | 1029.2 |
| 20260509030212 | 65 | 266 | 0.0 | 1.0 | 0.00 | 0.00 | 0.00 | 20 | 1029.1 |
| 20260509025715 | 65 | 274 | 0.0 | 7.0 | 0.00 | 0.00 | 0.00 | 20 | 1029.0 |
| 20260509025215 | 65 | 235 | 0.0 | 5.0 | 0.00 | 0.00 | 0.00 | 20 | 1028.9 |
| 20260509024715 | 65 | 271 | 0.0 | 3.0 | 0.00 | 0.00 | 0.00 | 20 | 1028.8 |
| 20260509024212 | 66 | 244 | 0.0 | 0.0 | 0.00 | 0.00 | 0.00 | 20 | 1028.8 |
| 20260509023712 | 66 | 253 | 0.0 | 1.0 | 0.00 | 0.00 | 0.00 | 19 | 1028.7 |
| 20260509023212 | 66 | 270 | 0.0 | 3.0 | 0.00 | 0.00 | 0.00 | 19 | 1028.6 |
| 20260509022715 | 66 | 250 | 0.0 | 1.0 | 0.00 | 0.00 | 0.00 | 19 | 1028.5 |
| 20260509022212 | 66 | 260 | 0.0 | 4.0 | 0.00 | 0.00 | 0.00 | 19 | 1028.4 |
| 20260509021712 | 67 | 277 | 0.0 | 1.0 | 0.00 | 0.00 | 0.00 | 19 | 1028.3 |
| 20260509021215 | 67 | 248 | 0.0 | 5.0 | 0.00 | 0.00 | 0.00 | 18 | 1028.1 |
| 20260509020715 | 67 | 250 | 2.0 | 11.0 | 0.00 | 0.00 | 0.00 | 18 | 1028.1 |
| 20260509020212 | 67 | 260 | 0.0 | 3.0 | 0.00 | 0.00 | 0.00 | 18 | 1028.0 |
| 20260509015712 | 68 | 252 | 1.0 | 2.0 | 0.00 | 0.00 | 0.00 | 17 | 1027.8 |
| 20260509015215 | 68 | 305 | 0.0 | 11.0 | 0.00 | 0.00 | 0.00 | 17 | 1027.7 |
| 20260509014715 | 68 | 277 | 0.0 | 7.0 | 0.00 | 0.00 | 0.00 | 17 | 1027.7 |
| 20260509014212 | 69 | 221 | 0.0 | 0.0 | 0.00 | 0.00 | 0.00 | 16 | 1027.5 |
| 20260509013715 | 69 | 232 | 0.0 | 0.0 | 0.00 | 0.00 | 0.00 | 16 | 1027.4 |
| 20260509013212 | 70 | 244 | 0.0 | 0.0 | 0.00 | 0.00 | 0.00 | 15 | 1027.2 |
| 20260509012712 | 71 | 250 | 0.0 | 4.0 | 0.00 | 0.00 | 0.00 | 15 | 1027.1 |
| 20260509012215 | 72 | 284 | 0.0 | 1.0 | 0.00 | 0.00 | 0.00 | 14 | 1026.9 |
| 20260509011715 | 72 | 248 | 0.0 | 1.0 | 0.00 | 0.00 | 0.00 | 14 | 1026.8 |
| 20260509011215 | 72 | 256 | 0.0 | 1.0 | 0.00 | 0.00 | 0.00 | 14 | 1026.8 |
| 20260509010712 | 72 | 210 | 0.0 | 10.0 | 0.00 | 0.00 | 0.00 | 14 | 1026.7 |
| 20260509010212 | 72 | 249 | 0.0 | 3.0 | 0.00 | 0.00 | 0.00 | 14 | 1026.6 |
| 20260509005712 | 73 | 238 | 0.0 | 8.0 | 0.00 | 0.00 | 0.00 | 14 | 1026.5 |
| 20260509005215 | 73 | 235 | 0.0 | 10.0 | 0.00 | 0.00 | 0.00 | 14 | 1026.4 |
| 20260509004715 | 73 | 249 | 0.0 | 7.0 | 0.00 | 0.00 | 0.00 | 13 | 1026.3 |
| 20260509004212 | 73 | 255 | 0.0 | 8.0 | 0.00 | 0.00 | 0.00 | 13 | 1026.3 |
| 20260509003712 | 73 | 253 | 0.0 | 1.0 | 0.00 | 0.00 | 0.00 | 14 | 1026.1 |
| 20260509003215 | 73 | 227 | 1.0 | 5.0 | 0.00 | 0.00 | 0.00 | 14 | 1026.1 |
| 20260509002715 | 73 | 302 | 0.0 | 2.0 | 0.00 | 0.00 | 0.00 | 14 | 1026.0 |
| 20260509002212 | 74 | 249 | 0.0 | 0.0 | 0.00 | 0.00 | 0.00 | 14 | 1025.9 |
| 20260509001712 | 75 | 262 | 0.0 | 0.0 | 0.00 | 0.00 | 0.00 | 14 | 1025.8 |
| 20260509001212 | 75 | 263 | 0.0 | 2.0 | 0.00 | 0.00 | 0.00 | 14 | 1025.8 |
| 20260509000715 | 75 | 294 | 0.0 | 0.0 | 0.00 | 0.00 | 0.00 | 13 | 1025.6 |
| 20260509000212 | 76 | 245 | 0.0 | 0.0 | 0.00 | 0.00 | 0.00 | 13 | 1025.6 |
| 20260508235715 | 76 | 260 | 0.0 | 0.0 | 0.00 | 0.00 | 0.00 | 14 | 1025.3 |
| 20260508235212 | 75 | 261 | 0.0 | 0.0 | 0.00 | 0.00 | 0.00 | 13 | 1025.3 |
| 20260508234715 | 76 | 262 | 0.0 | 0.0 | 0.00 | 0.00 | 0.00 | 14 | 1025.2 |
| 20260508234215 | 76 | 148 | 0.0 | 0.0 | 0.00 | 0.00 | 0.00 | 14 | 1025.0 |
| 20260508233715 | 76 | 354 | 0.0 | 0.0 | 0.00 | 0.00 | 0.00 | 14 | 1025.0 |
| 20260508233215 | 76 | 160 | 0.0 | 0.0 | 0.00 | 0.00 | 0.00 | 15 | 1024.9 |
| 20260508232712 | 74 | 143 | 0.0 | 0.0 | 0.00 | 0.00 | 0.00 | 16 | 1024.8 |
| 20260508232215 | 74 | 186 | 0.0 | 0.0 | 0.00 | 0.00 | 0.00 | 16 | 1024.6 |
| 20260508231715 | 73 | 181 | 0.0 | 0.0 | 0.00 | 0.00 | 0.00 | 16 | 1024.5 |
| 20260508231212 | 73 | 155 | 0.0 | 1.0 | 0.00 | 0.00 | 0.00 | 16 | 1024.4 |
| 20260508230712 | 73 | 139 | 0.0 | 1.0 | 0.00 | 0.00 | 0.00 | 16 | 1024.3 |
| 20260508230215 | 73 | 145 | 0.0 | 0.0 | 0.00 | 0.00 | 0.00 | 16 | 1024.2 |
| 20260508225712 | 73 | 190 | 0.0 | 0.0 | 0.00 | 0.00 | 0.00 | 16 | 1024.2 |
| 20260508225215 | 74 | 131 | 0.0 | 0.0 | 0.00 | 0.00 | 0.00 | 15 | 1024.1 |
| 20260508224715 | 74 | 103 | 0.0 | 0.0 | 0.00 | 0.00 | 0.00 | 17 | 1024.1 |
| 20260508224215 | 72 | 163 | 0.0 | 0.0 | 0.00 | 0.00 | 0.00 | 17 | 1024.0 |
| 20260508223715 | 72 | 143 | 0.0 | 1.0 | 0.00 | 0.00 | 0.00 | 17 | 1024.0 |
| 20260508223212 | 72 | 168 | 0.0 | 6.0 | 0.00 | 0.00 | 0.00 | 17 | 1023.9 |
| 20260508222712 | 72 | 195 | 0.0 | 0.0 | 0.00 | 0.00 | 0.00 | 17 | 1023.8 |
| 20260508222215 | 72 | 79 | 0.0 | 1.0 | 0.00 | 0.00 | 0.00 | 17 | 1023.8 |
| 20260508221715 | 72 | 96 | 0.0 | 0.0 | 0.00 | 0.00 | 0.00 | 17 | 1023.8 |
| 20260508221215 | 73 | 73 | 0.0 | 1.0 | 0.00 | 0.00 | 0.00 | 16 | 1023.8 |
| 20260508220712 | 74 | 86 | 0.0 | 6.0 | 0.00 | 0.00 | 0.00 | 15 | 1023.7 |
| 20260508220215 | 75 | 101 | 0.0 | 1.0 | 0.00 | 0.00 | 0.00 | 15 | 1023.6 |
| 20260508215712 | 75 | 70 | 0.0 | 1.0 | 0.00 | 0.00 | 0.00 | 15 | 1023.6 |
| 20260508215215 | 76 | 231 | 0.0 | 0.0 | 0.00 | 0.00 | 0.00 | 15 | 1023.6 |
| 20260508214712 | 76 | 69 | 0.0 | 1.0 | 0.00 | 0.00 | 0.00 | 14 | 1023.5 |
| 20260508214212 | 77 | 88 | 0.0 | 0.0 | 0.00 | 0.00 | 0.00 | 14 | 1023.4 |
| 20260508213712 | 77 | 108 | 0.0 | 0.0 | 0.00 | 0.00 | 0.00 | 15 | 1023.4 |
| 20260508213215 | 76 | 108 | 0.0 | 1.0 | 0.00 | 0.00 | 0.00 | 15 | 1023.4 |
| 20260508212712 | 75 | 138 | 0.0 | 1.0 | 0.00 | 0.00 | 0.00 | 16 | 1023.3 |
| 20260508212212 | 74 | 143 | 0.0 | 6.0 | 0.00 | 0.00 | 0.00 | 16 | 1023.2 |
| 20260508211715 | 74 | 104 | 0.0 | 12.0 | 0.00 | 0.00 | 0.00 | 15 | 1023.1 |
| 20260508211215 | 75 | 91 | 0.0 | 2.0 | 0.00 | 0.00 | 0.00 | 15 | 1023.1 |
| 20260508210712 | 75 | 158 | 0.0 | 9.0 | 0.00 | 0.00 | 0.00 | 16 | 1023.0 |
| 20260508210212 | 75 | 8 | 0.0 | 5.0 | 0.00 | 0.00 | 0.00 | 15 | 1022.9 |
| 20260508205715 | 75 | 183 | 0.0 | 2.0 | 0.00 | 0.00 | 0.00 | 15 | 1022.9 |
| 20260508205212 | 75 | 256 | 0.0 | 2.0 | 0.00 | 0.00 | 0.00 | 15 | 1022.8 |
| 20260508204712 | 75 | 215 | 0.0 | 0.0 | 0.00 | 0.00 | 0.00 | 15 | 1022.8 |
| 20260508204215 | 75 | 212 | 0.0 | 0.0 | 0.00 | 0.00 | 0.00 | 16 | 1022.9 |
| 20260508203715 | 74 | 215 | 0.0 | 6.0 | 0.00 | 0.00 | 0.00 | 16 | 1022.9 |
| 20260508203212 | 74 | 108 | 0.0 | 6.0 | 0.00 | 0.00 | 0.00 | 15 | 1022.8 |
| 20260508202712 | 74 | 200 | 0.0 | 8.0 | 0.00 | 0.00 | 0.00 | 15 | 1022.8 |
| 20260508202215 | 75 | 111 | 0.0 | 5.0 | 0.00 | 0.00 | 0.00 | 15 | 1022.8 |
| 20260508201712 | 76 | 159 | 0.0 | 0.0 | 0.00 | 0.00 | 0.00 | 15 | 1022.9 |
| 20260508201215 | 75 | 155 | 0.0 | 0.0 | 0.00 | 0.00 | 0.00 | 16 | 1022.8 |
| 20260508200712 | 74 | 272 | 0.0 | 0.0 | 0.00 | 0.00 | 0.00 | 16 | 1022.8 |
| 20260508200212 | 74 | 279 | 0.0 | 2.0 | 0.00 | 0.00 | 0.00 | 16 | 1022.8 |
| 20260508195715 | 74 | 238 | 0.0 | 1.0 | 0.00 | 0.00 | 0.00 | 17 | 1022.7 |
| 20260508195212 | 73 | 165 | 0.0 | 9.0 | 0.00 | 0.00 | 0.00 | 16 | 1022.7 |
| 20260508194712 | 74 | 180 | 0.0 | 8.0 | 0.00 | 0.00 | 0.00 | 17 | 1022.7 |
| 20260508194215 | 73 | 305 | 0.0 | 1.0 | 0.00 | 0.00 | 0.00 | 16 | 1022.5 |
| 20260508193715 | 73 | 193 | 0.0 | 1.0 | 0.00 | 0.00 | 0.00 | 16 | 1022.6 |
| 20260508193212 | 73 | 190 | 0.0 | 8.0 | 0.00 | 0.00 | 0.00 | 17 | 1022.5 |
| 20260508192712 | 73 | 162 | 2.0 | 13.0 | 0.00 | 0.00 | 0.00 | 17 | 1022.4 |
| 20260508192215 | 72 | 250 | 0.0 | 0.0 | 0.00 | 0.00 | 0.00 | 17 | 1022.4 |
| 20260508191712 | 72 | 149 | 0.0 | 9.0 | 0.00 | 0.00 | 0.00 | 17 | 1022.6 |
| 20260508191215 | 72 | 158 | 0.0 | 1.0 | 0.00 | 0.00 | 0.00 | 17 | 1022.5 |
| 20260508190712 | 72 | 201 | 0.0 | 0.0 | 0.00 | 0.00 | 0.00 | 17 | 1022.4 |
| 20260508190215 | 72 | 152 | 0.0 | 0.0 | 0.00 | 0.00 | 0.00 | 17 | 1022.4 |
| 20260508185715 | 71 | 250 | 0.0 | 1.0 | 0.00 | 0.00 | 0.00 | 17 | 1022.4 |
| 20260508185212 | 71 | 358 | 0.0 | 8.0 | 0.00 | 0.00 | 0.00 | 18 | 1022.4 |
| 20260508184715 | 70 | 142 | 0.0 | 1.0 | 0.00 | 0.00 | 0.00 | 18 | 1022.3 |
| 20260508184212 | 68 | 248 | 0.0 | 4.0 | 0.00 | 0.00 | 0.00 | 19 | 1022.4 |
| 20260508183715 | 68 | 132 | 0.0 | 9.0 | 0.00 | 0.00 | 0.00 | 18 | 1022.4 |
| 20260508183215 | 69 | 69 | 0.0 | 2.0 | 0.00 | 0.00 | 0.00 | 19 | 1022.3 |
| 20260508182712 | 69 | 52 | 0.0 | 4.0 | 0.00 | 0.00 | 0.00 | 18 | 1022.4 |
| 20260508182215 | 70 | 198 | 0.0 | 2.0 | 0.00 | 0.00 | 0.00 | 19 | 1022.5 |
| 20260508181712 | 69 | 123 | 0.0 | 3.0 | 0.00 | 0.00 | 0.00 | 19 | 1022.5 |
| 20260508181215 | 70 | 113 | 0.0 | 4.0 | 0.00 | 0.00 | 0.00 | 18 | 1022.5 |
| 20260508180715 | 70 | 30 | 0.0 | 5.0 | 0.00 | 0.00 | 0.00 | 18 | 1022.4 |
| 20260508180215 | 69 | 191 | 0.0 | 0.0 | 0.00 | 0.00 | 0.00 | 19 | 1022.4 |
| 20260508175712 | 68 | 165 | 0.0 | 0.0 | 0.00 | 0.00 | 0.00 | 20 | 1022.5 |
| 20260508175212 | 66 | 202 | 0.0 | 10.0 | 0.00 | 0.00 | 0.00 | 20 | 1022.6 |
| 20260508174712 | 65 | 49 | 0.0 | 11.0 | 0.00 | 0.00 | 0.00 | 20 | 1022.6 |
| 20260508174212 | 66 | 122 | 0.0 | 5.0 | 0.00 | 0.00 | 0.00 | 20 | 1022.6 |
| 20260508173715 | 68 | 28 | 0.0 | 0.0 | 0.00 | 0.00 | 0.00 | 19 | 1022.6 |
| 20260508173215 | 67 | 152 | 0.0 | 1.0 | 0.00 | 0.00 | 0.00 | 20 | 1022.5 |
| 20260508172715 | 67 | 77 | 0.0 | 1.0 | 0.00 | 0.00 | 0.00 | 20 | 1022.6 |
| 20260508172215 | 66 | 162 | 0.0 | 0.0 | 0.00 | 0.00 | 0.00 | 21 | 1022.7 |
| 20260508171715 | 66 | 88 | 0.0 | 1.0 | 0.00 | 0.00 | 0.00 | 21 | 1022.7 |
| 20260508171215 | 66 | 181 | 0.0 | 1.0 | 0.00 | 0.00 | 0.00 | 20 | 1022.8 |
| 20260508170715 | 67 | 140 | 0.0 | 0.0 | 0.00 | 0.00 | 0.00 | 20 | 1022.6 |
| 20260508170212 | 66 | 155 | 0.0 | 0.0 | 0.00 | 0.00 | 0.00 | 20 | 1022.6 |
| 20260508165712 | 67 | 238 | 0.0 | 0.0 | 0.00 | 0.00 | 0.00 | 20 | 1022.7 |
| 20260508165215 | 66 | 53 | 0.0 | 0.0 | 0.00 | 0.00 | 0.00 | 21 | 1022.7 |
| 20260508164712 | 65 | 6 | 0.0 | 0.0 | 0.00 | 0.00 | 0.00 | 21 | 1022.6 |
| 20260508164215 | 64 | 25 | 0.0 | 1.0 | 0.00 | 0.00 | 0.00 | 21 | 1022.6 |
| 20260508163712 | 65 | 305 | 0.0 | 0.0 | 0.00 | 0.00 | 0.00 | 21 | 1022.6 |
| 20260508163215 | 64 | 123 | 0.0 | 0.0 | 0.00 | 0.00 | 0.00 | 22 | 1022.7 |
| 20260508162712 | 63 | 343 | 0.0 | 0.0 | 0.00 | 0.00 | 0.00 | 22 | 1022.7 |